Regional Weather Roundup
Issued by NWS

Home | Current Version | Previous Version | Text Only | Print | Product List | Glossary On
Versions: 1 2 3 4 5 6 7 8 9 10 11 12 13 14 15 16 17 18 19 20 21 22 23 24 25 26 27 28 29 30 31 32 33 34 35 36 37 38 39 40 41 42 43 44 45 46 47 48 49 50
342
ASUS44 KOUN 282010
RWROK

WEATHER ROUNDUP FOR OKLAHOMA
NATIONAL WEATHER SERVICE NORMAN OK
300 PM CDT FRI APR 28 2017

NOTE: "FAIR" INDICATES FEW OR NO CLOUDS BELOW 12,000 FEET WITH NO
      SIGNIFICANT WEATHER AND/OR OBSTRUCTIONS TO VISIBILITY.

OKZ001>007-009>012-014-015-017-282100-
NORTHWEST OKLAHOMA AND THE PANHANDLE

CITY           SKY/WX    TMP DP  RH WIND       PRES   REMARKS
GAGE           SUNNY     73  41  31 E10G17    29.63S
GUYMON         RAIN      56  44  64 NW7       29.72R
$$

OKZ016-021>023-033>039-044-045-282100-
SOUTHWEST OKLAHOMA

CITY           SKY/WX    TMP DP  RH WIND       PRES   REMARKS
LAWTON/REGL    CLOUDY    81  58  45 E8        29.59S
LAWTON/FT SILL CLOUDY    80  59  47 E10       29.58F
FREDERICK      CLOUDY    81  53  37 E9        29.56S
CLINTON        CLOUDY    74  47  38 E10       29.62F
HOBART         PTSUNNY   76  53  44 E10       29.61F
ALTUS AFB      MOSUNNY   79  53  40 E12       29.58F
$$

OKZ018>020-024>031-282100-
CENTRAL OKLAHOMA

CITY           SKY/WX    TMP DP  RH WIND       PRES   REMARKS
OKLAHOMA CITY  CLOUDY    75  55  49 N8        29.62S
OKC/WILEY POST PTSUNNY   74  56  53 N8        29.63S
OKC/TINKER AFB CLOUDY    77  60  54 N7        29.60F
STILLWATER     PTSUNNY   74  58  57 VRB5      29.63S
GUTHRIE        CLOUDY    72  57  59 CALM      29.63S
$$

OKZ008-013-054>072-282100-
NORTHEAST OKLAHOMA

CITY           SKY/WX    TMP DP  RH WIND       PRES   REMARKS
TULSA          PTSUNNY   75  60  59 CALM      29.62F
TULSA/JONES    CLOUDY    75  60  59 E6        29.64R
PONCA CITY     CLOUDY    74  55  51 VRB3      29.63F
BARTLESVILLE   CLOUDY    71  57  61 CALM      29.66F
MUSKOGEE       CLOUDY    72  64  76 SE8       29.67R
$$

OKZ032-040>043-046>053-073>077-282100-
SOUTH CENTRAL/SOUTHEAST OKLAHOMA

CITY           SKY/WX    TMP DP  RH WIND       PRES   REMARKS
ARDMORE/DWNTWN CLOUDY    79  63  57 S7        29.61F
MCALESTER      PTSUNNY   76  66  71 S7        29.65F
$$





USA.gov is the U.S. government's official web portal to all federal, state and local government web resources and services.